FENGYUN 1C DEB, 30044

Orbit data source: Space-Track

FENGYUN 1C DEB, 30044 is space debris in SSO originally from a launch on Mon, 10 May 1999 UTC launched from the Taiyaun Space Center, China (TSC). Fengyun 1C debris stems from the Chinese weather satellite Fengyun-1C, which was intentionally destroyed by a Chinese anti-satellite missile in 2007. This event dramatically increased the amount of space debris, with thousands of trackable fragments posing hazards to satellites and human spaceflight. The Fengyun 1C debris cloud has become a focal point in discussions about space sustainability and the need for international regulations to prevent the creation of new debris.

Loading next visibility...
Identifier
30044, 1999-025NV
Orbit
SSO
Country
Flag of CNCN / PRC
Related business
Manufacturer
Unknown
Mission
Spacecraft
Bus & Motor
Unknown
Mass
Unknown
Launch date (UTC)
1999-05-10 (26 years ago)
Launch vehicle
Unknown
Launch site
Taiyaun Space Center, China (TSC)
Object type
Payload
Rocket body
Debris
Shape & HBR
Unknown shape, 0.1 m
Radar Cross Section
Small (<0.1 m²)

Expand to show TLE details & history
Last TLE update: 12 hours ago

TLE from 12 hours ago
0 FENGYUN 1C DEB
1 30044U 99025NV  25296.03635064  .00013975  00000-0  35017-2 0  9990
2 30044  98.2078 217.6065 0082715 325.5858  33.9995 14.49428420973042
Epoch: 2025-10-23T00:52Z
TLE epoch observation values (Epoch: 2025-10-23T00:52:20.695Z)
Latitude
-0.00003°
Longitude
172.8189°
Altitude
681.904 km
Speed
7.541 km/s
True Right ascension
14h 30m 25s
True Declination
0° 00' 00"
Sunlit
Object was in daylight at epoch
Visualization orbit readout
Latitude
Unknown
Longitude
Unknown
Altitude
Unknown
Speed
Unknown
Apparent Right ascension
Unknown
Apparent Declination
Unknown
Sunlit
N/A
Visualization observer readout
Local Sidereal Time
08:06:17
Azimuth
Unknown
Elevation
Unknown
Doppler factor
Unknown
Orbital elements
Apogee altitude
783.362 km
Perigee altitude
665.861 km
Semi-major axis
7,102.748 km
Eccentricity
0.00827
Inclination
98.2078°
RAAN
217.6065°
Arg. of periapsis
325.5858°
True anomaly
34.53409°
Mean anomaly
33.9995°
Eccentric anomaly
34.26634°
Mean motion
3.6258 °/min
Orbital period
99.29 mins
BSTAR
0.0035017

Documentation

Showing up to 5 results
|